Lapse_Rate
6.3 6.4 6.4 6.5 6.5 6.6 6.7 6.7 6.7 6.8 6.8 6.9 6.8 6.8 6.7 6.7 6.9 7.0 6.9 6.9 6.7 6.4 6.2 6.1 6.1 6.1 6.0 5.9 6.0 6.0 5.8 5.9 6.0 6.1 6.3 6.2 6.4 6.4 6.7 6.8 6.8 6.8 6.8
6.3 6.4 6.4 6.5 6.5 6.5 6.6 6.6 6.7 6.8 6.9 6.8 6.6 6.6 6.5 6.7 6.8 6.9 6.8 6.7 6.4 6.2 6.1 6.1 6.1 6.2 6.1 6.2 6.0 5.8 5.9 6.0 6.0 6.1 6.2 6.1 6.1 6.1 6.3 6.6 6.6 6.8 6.7
6.4 6.4 6.4 6.4 6.4 6.4 6.5 6.6 6.7 6.8 6.8 6.6 6.5 6.5 6.4 6.7 6.6 6.6 6.6 6.4 6.2 6.1 6.2 6.1 6.1 6.2 6.2 6.2 6.1 6.0 6.0 6.1 6.1 6.2 6.3 6.2 6.0 5.9 5.9 6.2 6.4 6.6 6.6
6.3 6.4 6.3 6.3 6.4 6.5 6.5 6.6 6.6 6.6 6.6 6.5 6.4 6.4 6.4 6.5 6.6 6.5 6.4 6.2 6.2 6.0 6.1 6.2 6.1 6.1 6.2 6.1 6.2 6.2 6.0 5.9 6.1 6.2 6.2 6.3 6.2 6.1 5.9 5.8 6.0 6.3 6.4
6.3 6.3 6.3 6.3 6.4 6.4 6.5 6.5 6.6 6.5 6.5 6.4 6.2 6.3 6.3 6.2 6.3 6.2 6.1 6.1 6.1 6.2 6.2 6.2 6.1 6.1 6.1 6.1 6.1 6.2 6.0 5.9 6.0 6.1 6.0 6.0 5.8 5.9 5.9 5.8 5.8 5.9 6.2
6.3 6.3 6.3 6.3 6.4 6.4 6.4 6.5 6.5 6.4 6.4 6.3 6.1 6.2 6.1 6.0 6.0 5.9 5.9 6.0 6.2 6.1 6.3 6.2 6.2 6.1 6.1 6.1 6.1 6.1 6.1 6.0 6.0 5.9 6.0 6.0 5.9 5.9 5.9 6.0 5.9 5.9 5.8
6.3 6.3 6.3 6.3 6.3 6.3 6.3 6.3 6.3 6.3 6.2 6.2 6.0 6.0 5.9 5.9 5.9 5.9 5.9 5.9 6.1 6.1 6.1 6.0 6.1 6.0 6.0 6.0 6.0 6.0 6.0 5.9 5.8 5.9 5.9 6.0 6.0 5.8 5.9 6.0 6.0 6.0 5.9
6.3 6.3 6.3 6.3 6.3 6.3 6.2 6.3 6.2 6.1 6.0 5.9 5.8 5.8 5.9 5.9 5.9 5.9 5.9 5.9 6.0 6.0 6.1 6.1 6.0 5.9 6.0 6.1 6.1 6.1 6.0 6.0 5.8 5.8 5.8 5.9 6.0 5.9 6.0 5.9 6.0 6.0 6.0
6.3 6.4 6.2 6.1 6.1 6.2 6.1 6.0 6.0 6.0 5.9 5.7 5.7 5.7 5.8 5.9 5.8 5.8 5.9 5.9 6.0 6.0 6.0 5.9 6.0 6.0 5.9 5.9 6.0 5.9 6.0 6.0 5.8 5.7 5.7 5.7 5.8 5.8 5.9 6.0 5.9 5.9 5.9
6.2 6.3 6.2 6.1 6.0 6.1 6.0 6.0 5.8 5.7 5.6 5.5 5.5 5.6 5.5 5.6 5.6 5.6 5.8 5.9 5.9 5.9 5.9 6.0 6.0 6.1 6.0 6.0 5.9 6.0 6.0 6.0 5.9 5.8 5.7 5.7 5.7 5.8 5.8 5.7 5.7 5.7 5.8
5.9 6.0 6.0 6.1 6.1 6.1 6.0 5.9 5.8 5.6 5.5 5.4 5.3 5.4 5.4 5.5 5.6 5.6 5.6 5.7 5.8 5.9 5.9 6.0 6.0 6.1 6.2 6.1 6.1 6.0 6.1 5.9 5.9 5.8 5.8 5.7 5.7 5.7 5.7 5.6 5.6 5.7 5.7
5.6 5.9 5.9 6.1 6.1 6.0 6.0 5.9 5.7 5.5 5.4 5.4 5.3 5.4 5.4 5.3 5.5 5.5 5.6 5.7 5.9 6.0 6.0 6.0 5.9 6.0 6.0 6.0 6.0 6.1 6.0 6.0 6.0 5.9 5.9 5.8 5.8 5.7 5.6 5.6 5.8 5.7 5.6
5.6 5.8 6.0 6.1 6.2 6.2 6.0 5.7 5.6 5.5 5.5 5.5 5.2 5.2 5.3 5.4 5.3 5.5 5.6 5.7 5.8 5.8 5.9 6.0 6.0 5.9 5.9 5.9 5.9 5.9 6.0 6.1 5.9 5.8 5.7 5.7 5.8 5.8 5.8 5.8 5.6 5.6 5.4
5.8 5.6 5.9 5.9 6.0 6.1 5.9 5.7 5.6 5.6 5.4 5.4 5.3 5.2 5.2 5.2 5.3 5.3 5.5 5.5 5.6 5.8 5.8 5.8 5.9 5.9 5.9 5.8 6.0 5.9 5.9 6.0 5.9 5.9 5.8 5.7 5.8 6.0 5.9 5.8 5.6 5.5 5.4
6.0 5.8 5.6 5.8 5.9 5.9 5.9 5.7 5.6 5.5 5.5 5.3 5.4 5.2 5.1 5.1 5.2 5.3 5.2 5.3 5.2 5.4 5.6 5.7 5.7 5.8 5.8 5.8 5.9 6.0 5.9 5.9 5.8 5.7 5.8 5.7 5.6 5.7 5.9 5.8 5.7 5.5 5.4
6.2 6.1 6.1 5.6 5.7 5.6 5.6 5.6 5.6 5.5 5.4 5.4 5.3 5.3 5.2 4.9 5.1 5.1 5.0 5.3 5.2 5.2 5.4 5.5 5.6 5.7 5.8 5.9 6.0 6.0 5.7 5.9 5.9 5.7 5.8 5.9 5.8 5.7 5.7 5.5 5.6 5.3 5.2
6.0 5.9 6.2 6.2 5.7 5.7 5.6 5.4 5.4 5.2 5.3 5.3 5.1 5.1 5.1 4.8 4.8 5.1 4.9 4.9 5.1 5.0 5.2 5.6 5.7 5.7 5.7 5.8 6.0 6.1 6.0 6.0 5.9 5.9 5.8 5.7 5.7 5.4 5.5 5.4 5.4 5.2 5.0
6.1 6.1 6.0 6.0 5.9 5.9 5.8 5.6 5.5 5.1 5.1 5.3 5.0 4.8 4.8 4.7 4.7 4.9 5.1 5.1 4.9 4.9 5.0 5.5 5.7 5.7 5.6 5.7 5.8 6.1 6.2 6.3 6.2 6.2 5.9 5.8 5.7 5.7 5.6 5.4 5.2 5.0 4.8
5.0 5.4 5.8 5.9 6.2 5.5 5.3 5.8 5.8 5.6 5.4 5.2 5.1 4.6 5.0 4.6 4.7 4.8 4.9 4.9 5.0 4.9 4.8 5.1 5.3 5.4 5.5 5.6 5.7 5.5 5.7 6.0 6.0 5.9 5.8 5.6 5.8 5.7 5.5 5.2 5.1 4.9 4.6
5.5 5.2 5.2 5.4 5.5 5.3 5.5 5.6 5.6 5.8 5.5 5.6 5.3 5.0 5.1 4.5 4.8 4.7 4.9 4.9 4.8 4.9 5.0 5.0 5.1 5.3 5.4 5.7 5.7 5.7 5.6 5.6 5.6 5.9 6.1 5.9 5.7 5.7 5.2 4.9 4.9 4.5 4.7
5.6 5.7 5.6 5.2 5.6 5.2 5.2 5.1 4.9 5.5 5.7 5.5 5.9 5.6 5.5 4.6 4.5 4.5 4.7 5.0 5.1 5.0 5.1 5.0 5.1 5.3 5.7 5.7 5.7 5.3 5.5 5.5 5.7 5.7 5.8 5.5 5.7 5.4 5.2 5.0 4.6 4.7 4.7
6.2 5.6 5.1 5.6 5.3 5.1 5.3 5.1 5.0 5.3 5.1 5.0 5.0 5.4 5.0 5.2 4.9 4.6 4.9 4.9 5.3 4.9 5.0 5.2 5.3 5.7 5.7 5.7 5.7 5.5 5.4 5.3 5.6 5.4 5.2 5.2 5.2 5.1 5.0 4.6 4.4 4.4 4.5
6.4 6.1 6.3 6.0 5.2 5.0 5.0 5.1 5.2 5.3 5.2 4.9 5.0 4.9 4.9 5.0 5.2 5.3 5.0 5.1 5.1 5.1 5.2 4.9 5.1 5.4 5.4 5.5 4.8 4.8 5.5 5.2 5.0 4.8 4.7 5.2 5.0 4.9 4.8 4.5 4.5 4.4 4.5
6.4 6.2 6.1 5.9 5.2 4.8 4.6 4.8 5.0 5.0 5.0 5.0 5.2 5.1 5.2 5.2 5.3 5.1 5.3 5.1 5.2 5.1 5.0 5.0 5.0 5.1 5.1 5.1 5.1 5.3 5.1 5.0 4.7 4.8 5.0 5.2 4.9 4.8 4.6 4.5 4.4 4.3 4.4
6.5 6.4 5.7 6.0 5.0 4.5 4.5 4.6 4.7 4.3 4.8 5.1 5.1 5.4 5.0 4.9 5.4 5.3 5.0 5.1 5.3 5.2 5.1 5.0 4.8 4.8 4.9 5.1 5.2 5.1 5.2 4.6 4.5 4.9 4.7 5.0 5.0 4.8 4.6 4.4 4.2 4.1 4.4
6.4 6.2 6.2 6.0 5.7 5.2 5.5 5.2 5.4 5.1 5.0 5.0 5.3 5.1 4.5 5.0 5.2 5.4 5.3 5.4 5.4 5.2 5.2 5.2 4.6 4.5 4.8 4.4 4.4 4.4 4.5 4.1 4.7 4.5 4.8 4.8 4.7 4.6 4.4 4.4 4.5 4.5 4.6
Wind_Speed
6 13 11 12 13 18 14 8 10 8 8 18 18 15 16 15 15 15 16 20 20 20 17 15 15 14 13 13 16 16 18 17 17 18 18 18 18 18 19 20 21 22 21
9 7 7 9 9 17 13 12 8 6 6 15 15 14 13 13 14 15 16 17 23 18 15 13 13 14 12 14 14 14 15 16 16 15 16 18 17 18 19 20 21 21 21
13 12 5 5 11 15 15 13 9 9 6 9 7 13 13 12 13 14 14 14 20 17 15 12 12 12 12 12 12 12 12 13 14 15 14 16 16 17 18 19 20 20 20
17 10 4 4 11 15 12 6 5 5 5 5 4 5 6 10 10 11 11 16 18 17 14 13 11 11 10 11 10 11 12 12 13 12 14 13 14 16 17 18 19 19 20
17 10 6 8 13 8 6 5 3 5 5 5 5 5 5 5 8 9 11 12 18 18 16 16 14 12 11 9 8 9 10 11 11 12 12 13 14 15 16 15 17 18 18
17 13 9 9 12 5 5 4 5 4 4 5 6 5 4 4 7 7 9 7 15 19 17 16 14 12 10 8 9 9 8 10 11 10 12 12 12 13 14 15 17 16 18
16 12 7 7 8 5 6 7 5 7 4 4 5 4 4 4 4 3 6 9 6 13 17 17 15 13 12 10 8 8 8 8 8 9 10 10 11 12 14 15 15 15 16
15 11 7 6 6 5 7 6 6 4 3 5 4 4 3 2 1 2 2 4 6 9 6 8 12 12 11 10 7 8 7 8 9 10 9 9 11 13 13 14 14 14 15
15 13 12 7 6 5 6 6 6 6 8 4 12 4 3 4 4 2 3 3 5 3 8 9 10 8 12 8 6 6 6 8 9 10 9 10 11 11 11 13 13 13 14
11 13 14 12 7 4 6 6 6 4 5 10 4 2 2 6 3 2 2 3 4 4 5 8 10 7 12 9 7 6 6 6 10 9 7 7 7 9 10 11 12 13 15
11 10 13 11 8 5 7 8 8 6 5 5 3 3 1 0 4 3 3 3 1 2 5 8 12 9 10 11 9 5 6 4 8 7 7 6 9 9 10 11 11 14 15
6 6 9 8 9 7 8 7 7 8 6 5 4 4 4 3 4 3 3 3 4 2 2 6 10 12 11 12 10 7 4 4 8 8 8 8 8 9 9 11 12 13 13
5 10 9 8 6 6 6 7 7 7 6 6 7 4 4 4 3 3 4 4 3 3 2 3 9 14 12 13 10 8 8 8 9 8 7 8 8 8 9 10 11 13 13
11 11 10 7 6 9 7 7 5 6 6 6 8 6 4 5 3 3 4 5 3 1 2 3 3 13 14 18 14 11 10 9 8 8 8 7 8 9 9 10 12 12 13
9 11 13 10 8 6 7 8 8 9 8 6 7 7 4 4 4 4 3 7 5 4 5 5 3 11 15 19 16 13 13 10 9 8 7 7 7 8 9 10 11 11 12
7 11 13 13 11 10 10 9 6 8 8 6 5 7 5 4 5 4 4 4 3 4 4 3 3 4 14 12 17 10 16 13 10 8 8 8 7 7 8 9 11 10 10
10 12 14 14 14 13 13 10 10 10 11 10 7 9 8 7 5 5 4 3 4 3 3 1 2 6 5 7 11 15 20 15 11 10 8 8 9 7 8 10 10 9 10
8 8 12 14 14 13 13 15 13 13 14 13 12 12 12 8 7 6 5 6 4 4 3 6 3 3 4 7 9 10 12 14 15 14 11 10 9 8 9 10 9 9 9
11 13 8 9 12 12 13 14 15 14 14 15 14 14 13 12 10 8 6 7 5 3 5 5 4 2 3 4 3 3 4 13 14 14 12 10 10 9 11 9 9 8 7
13 10 8 8 9 8 8 11 13 14 13 13 12 13 12 14 14 13 12 11 7 6 5 7 4 7 5 3 4 4 3 2 3 11 11 11 10 10 10 8 7 7 6
10 9 11 11 11 10 9 13 13 13 12 11 8 11 11 14 15 13 10 10 10 8 8 8 7 4 6 7 10 4 3 2 2 5 3 7 10 8 8 10 9 8 4
13 14 11 11 10 9 17 20 15 12 12 12 12 9 10 12 14 16 15 14 15 12 10 7 7 9 10 8 6 7 4 4 3 10 3 3 11 5 11 11 11 10 5
9 10 12 13 13 13 15 19 18 10 10 10 10 10 8 8 11 12 15 15 14 16 17 12 11 10 9 11 9 8 6 5 4 3 4 3 5 4 12 13 15 13 10
10 9 10 10 10 9 14 17 18 12 11 12 13 12 13 11 13 13 12 11 10 10 9 7 10 9 8 13 14 11 10 6 3 2 7 4 4 4 10 15 15 15 11
6 7 7 10 12 10 17 19 19 12 9 10 8 10 13 13 19 21 14 13 11 7 13 16 16 19 19 23 19 7 7 8 3 3 4 3 3 3 3 3 15 17 10
3 3 4 4 7 7 12 15 14 6 8 5 5 8 14 11 15 20 14 14 13 11 12 8 5 9 15 18 25 18 10 9 4 1 4 4 3 4 1 3 13 17 16
Wind_Direction
142 156 155 155 170 149 170 181 134 135 138 104 99 91 90 90 87 92 88 97 96 92 86 79 77 81 80 71 68 70 72 66 65 64 65 59 59 55 55 51 51 46 46
145 144 138 152 156 153 163 136 140 126 108 109 112 113 109 104 100 97 93 93 90 89 91 78 74 77 77 81 77 72 68 71 71 68 62 60 54 54 51 53 49 49 45
143 138 141 142 151 152 143 140 129 113 96 101 115 118 127 126 117 120 116 99 91 84 92 83 76 79 77 75 80 77 67 70 60 58 59 61 56 55 53 53 52 49 49
138 135 130 136 157 145 142 130 133 118 108 107 105 115 126 129 136 136 133 121 113 95 88 96 86 73 69 81 79 74 73 66 66 60 53 54 55 52 54 50 51 48 47
140 135 132 142 140 131 126 135 123 125 122 116 115 102 96 91 101 101 91 100 122 118 110 100 93 77 64 58 73 76 73 74 69 61 56 47 51 53 52 49 50 51 50
145 138 140 142 141 131 132 134 136 129 131 136 118 103 100 104 103 112 120 125 124 134 137 133 121 101 84 65 49 53 73 77 70 59 56 52 50 50 59 53 50 51 48
152 148 140 144 146 145 157 151 136 136 130 122 102 77 53 70 87 114 136 135 147 143 163 157 150 135 118 91 71 50 42 56 88 68 61 56 59 59 59 57 58 50 52
157 151 141 154 153 153 157 154 143 134 138 144 139 110 121 354 10 166 163 155 172 150 152 141 131 153 135 109 82 59 38 19 98 80 65 64 66 61 60 59 61 56 52
162 152 151 154 161 158 163 161 155 150 163 172 168 144 147 181 134 230 210 175 159 158 174 148 134 136 136 132 103 63 37 8 105 84 73 61 68 71 70 65 63 59 53
160 159 159 161 170 160 164 160 163 157 147 180 187 139 103 134 166 158 255 207 174 182 164 151 143 145 128 114 91 66 36 15 97 91 83 80 74 76 73 68 65 62 62
159 173 168 166 171 167 166 165 166 167 162 172 163 139 138 154 136 136 164 200 121 185 165 164 154 157 143 145 128 95 66 76 112 108 94 82 82 79 84 76 71 70 62
162 173 174 171 174 171 171 172 164 168 173 172 175 169 156 180 172 145 128 144 156 237 163 163 160 160 152 129 132 133 120 110 119 111 107 94 90 79 81 85 77 72 69
180 186 179 177 174 166 163 166 165 172 183 175 183 192 167 203 165 150 118 160 164 177 184 182 173 165 155 152 145 145 120 108 123 121 116 114 104 99 86 85 83 78 70
187 173 179 171 171 172 171 167 176 175 180 178 180 188 182 194 201 179 145 149 126 137 163 192 174 165 161 159 160 153 134 121 121 131 132 127 121 109 101 96 87 84 78
178 175 176 177 175 177 176 172 183 185 188 184 184 185 177 193 191 185 156 162 145 160 193 204 169 176 150 157 164 164 149 144 139 135 131 129 129 114 107 111 102 90 86
181 174 177 181 183 183 180 177 178 182 180 188 182 183 188 179 178 171 173 180 158 141 169 163 191 145 150 155 171 180 160 146 141 148 145 133 125 123 125 122 109 101 90
181 181 179 185 189 189 184 183 186 185 191 187 185 185 192 179 181 176 174 166 190 147 139 191 116 150 133 146 172 160 155 152 154 158 144 142 133 133 135 132 118 104 92
209 188 183 190 192 192 189 192 189 195 194 192 193 187 189 182 184 177 171 184 178 167 133 152 128 148 130 150 171 165 166 164 164 162 159 155 152 148 148 132 120 99 91
207 208 197 187 195 190 194 198 198 198 198 200 194 196 191 181 180 178 174 180 178 162 143 147 139 134 118 143 144 180 203 154 160 163 160 159 159 156 148 147 140 115 91
193 191 171 190 196 201 211 207 207 204 200 203 196 196 187 195 191 184 182 182 170 162 145 152 137 162 155 147 143 164 191 100 139 165 160 161 163 165 165 166 152 128 100
187 175 186 202 213 205 207 210 213 204 202 199 191 191 196 199 191 187 184 184 172 172 160 161 161 152 168 167 180 161 169 153 193 163 142 171 164 165 178 184 179 171 148
185 177 187 187 210 212 209 207 211 206 207 209 206 197 194 194 193 182 181 180 180 176 169 167 169 179 186 181 155 176 145 162 216 199 140 208 181 190 190 195 199 199 188
188 206 198 182 211 219 205 205 201 199 206 197 197 203 197 197 179 195 178 173 177 186 180 170 177 184 173 180 162 174 172 175 201 163 141 180 179 195 191 190 192 195 198
192 191 203 191 198 218 209 203 194 200 204 210 203 199 203 185 182 176 177 183 182 177 172 171 174 174 174 167 177 182 181 153 67 133 154 181 178 198 188 190 196 196 203
182 188 199 187 196 211 203 194 191 203 194 209 213 202 207 202 185 175 179 178 176 167 145 146 159 165 164 166 169 141 164 164 175 207 192 136 178 150 165 184 203 204 202
144 156 192 197 217 206 197 198 186 190 198 192 193 198 199 194 189 181 191 182 179 177 146 122 117 135 155 172 175 184 166 180 161 167 205 146 144 138 198 212 195 206 208